TimeCDT,TemperatureF,Dew PointF,Humidity,Sea Level PressureIn,VisibilityMPH,Wind Direction,Wind SpeedMPH,Gust SpeedMPH,PrecipitationIn,Events,Conditions,WindDirDegrees,DateUTC
12:53 AM,50.0,28.9,44,30.03,10.0,South,11.5,-,N/A,,Partly Cloudy,170,2012-10-11 05:53:00
1:53 AM,48.0,30.0,50,30.01,10.0,South,9.2,-,N/A,,Clear,170,2012-10-11 06:53:00
2:53 AM,46.9,30.0,52,30.01,10.0,South,10.4,-,N/A,,Clear,170,2012-10-11 07:53:00
3:53 AM,46.0,32.0,58,29.99,10.0,SSE,9.2,-,N/A,,Clear,160,2012-10-11 08:53:00
4:53 AM,46.9,33.1,59,29.99,10.0,South,9.2,-,N/A,,Clear,170,2012-10-11 09:53:00
5:53 AM,46.0,34.0,63,29.99,10.0,South,9.2,-,N/A,,Clear,170,2012-10-11 10:53:00
6:53 AM,46.0,36.0,68,29.99,10.0,South,11.5,-,N/A,,Clear,180,2012-10-11 11:53:00
7:53 AM,46.0,37.0,71,30.00,10.0,South,11.5,-,N/A,,Clear,180,2012-10-11 12:53:00
8:53 AM,51.1,39.0,63,30.00,10.0,South,12.7,-,N/A,,Clear,170,2012-10-11 13:53:00
9:53 AM,57.9,44.1,60,30.00,10.0,South,13.8,20.7,N/A,,Clear,190,2012-10-11 14:53:00
10:53 AM,62.1,46.0,56,30.01,10.0,South,11.5,-,N/A,,Clear,180,2012-10-11 15:53:00
1:53 PM,70.0,46.9,44,29.97,10.0,Calm,Calm,-,N/A,,Clear,0,2012-10-11 18:53:00
2:53 PM,73.4,46.4,38,29.99,10.0,East,4.6,-,N/A,,Clear,90,2012-10-11 19:53:00
3:53 PM,73.9,46.9,38,29.99,10.0,NNE,8.1,-,N/A,,Clear,20,2012-10-11 20:53:00
4:53 PM,73.4,46.4,38,30.01,10.0,NE,9.2,-,N/A,,Clear,40,2012-10-11 21:53:00
5:53 PM,72.0,46.0,40,30.01,10.0,NNE,17.3,25.3,N/A,,Clear,20,2012-10-11 22:53:00
6:53 PM,64.0,36.0,35,30.06,10.0,NNE,20.7,32.2,N/A,,Clear,20,2012-10-11 23:53:00
7:53 PM,59.0,35.6,42,30.11,10.0,NNE,13.8,24.2,N/A,,Clear,20,2012-10-12 00:53:00
8:53 PM,55.9,34.0,44,30.16,10.0,NNE,19.6,28.8,N/A,,Clear,20,2012-10-12 01:53:00
9:53 PM,52.0,33.1,49,30.19,10.0,NNE,20.7,27.6,N/A,,Clear,20,2012-10-12 02:53:00
10:53 PM,50.0,33.1,52,30.19,10.0,NNE,19.6,26.5,N/A,,Clear,30,2012-10-12 03:53:00
11:53 PM,48.2,32.0,54,30.20,10.0,NNE,19.6,28.8,N/A,,Clear,30,2012-10-12 04:53:00